OK2ZAW-23 Weather Reports


Display with metric or nautical units.
time (UTC)temp
F
wind
direction
speed
MPH
gust
MPH
rain 1hr
in
rain 24hr
in
rain mn
in
humidity
%
barometer
mb
20260905190710 61 0 0.0 0.0 0.00 0.00 0.00 62 1019.2
20260905190156 61 0 0.0 0.0 0.00 0.00 0.00 61 1019.2
20260905185129 61 0 0.0 0.0 0.00 0.00 0.00 61 1019.0
20260905184101 61 0 0.0 0.0 0.00 0.00 0.00 60 1018.8
20260905183548 61 0 0.0 0.0 0.00 0.00 0.00 60 1018.7
20260905182520 62 0 0.0 0.0 0.00 0.00 0.00 59 1018.6
20260905182006 62 0 0.0 0.0 0.00 0.00 0.00 59 1018.5
20260905181453 62 0 0.0 0.0 0.00 0.00 0.00 59 1018.4
20260905180938 62 0 0.0 0.0 0.00 0.00 0.00 59 1018.5
20260905180424 62 0 0.0 0.0 0.00 0.00 0.00 58 1018.4
20260905175911 63 0 0.0 0.0 0.00 0.00 0.00 58 1018.3
20260905175357 63 0 0.0 0.0 0.00 0.00 0.00 57 1018.2
20260905174843 63 0 0.0 0.0 0.00 0.00 0.00 57 1018.1
20260905173302 63 0 0.0 0.0 0.00 0.00 0.00 56 1017.9
20260905172747 64 0 0.0 0.0 0.00 0.00 0.00 55 1017.9
20260905171206 65 0 0.0 0.0 0.00 0.00 0.00 59 1017.6
20260905170138 66 0 0.0 0.0 0.00 0.00 0.00 58 1017.5
20260905164556 67 0 0.0 0.0 0.00 0.00 0.00 55 1017.4
20260905164041 68 0 0.0 0.0 0.00 0.00 0.00 54 1017.3
20260905163527 68 0 0.0 0.0 0.00 0.00 0.00 55 1017.2
20260905161946 67 0 0.0 0.0 0.00 0.00 0.00 56 1017.2
20260905160917 68 0 0.0 0.0 0.00 0.00 0.00 54 1017.1
20260905160403 68 0 0.0 0.0 0.00 0.00 0.00 53 1017.0
20260905155849 68 0 0.0 0.0 0.00 0.00 0.00 52 1017.0
20260905154306 70 0 0.0 0.0 0.00 0.00 0.00 46 1017.0
20260905153752 72 0 0.0 0.0 0.00 0.00 0.00 44 1017.0
20260905153238 73 0 0.0 0.0 0.00 0.00 0.00 43 1017.1
20260905152723 72 0 0.0 0.0 0.00 0.00 0.00 44 1016.9
20260905152209 73 0 0.0 0.0 0.00 0.00 0.00 43 1016.9
20260905151141 70 0 0.0 0.0 0.00 0.00 0.00 47 1016.9
20260905150626 69 0 0.0 0.0 0.00 0.00 0.00 48 1016.9
20260905150113 69 0 0.0 0.0 0.00 0.00 0.00 46 1016.9
20260905145558 70 0 0.0 0.0 0.00 0.00 0.00 45 1016.8
20260905144530 72 0 0.0 0.0 0.00 0.00 0.00 41 1017.0
20260905144015 72 0 0.0 0.0 0.00 0.00 0.00 41 1016.9
20260905142946 70 0 0.0 0.0 0.00 0.00 0.00 45 1017.0
20260905142433 71 0 0.0 0.0 0.00 0.00 0.00 44 1017.0
20260905140849 72 0 0.0 0.0 0.00 0.00 0.00 41 1017.3
20260905140335 71 0 0.0 0.0 0.00 0.00 0.00 43 1017.0
20260905135821 71 0 0.0 0.0 0.00 0.00 0.00 44 1017.3
20260905135307 70 0 0.0 0.0 0.00 0.00 0.00 45 1017.1
20260905133724 71 0 0.0 0.0 0.00 0.00 0.00 44 1017.4
20260905133209 71 0 0.0 0.0 0.00 0.00 0.00 45 1017.3
20260905132655 69 0 0.0 0.0 0.00 0.00 0.00 45 1017.4
20260905132141 69 0 0.0 0.0 0.00 0.00 0.00 45 1017.2
20260905131627 68 0 0.0 0.0 0.00 0.00 0.00 47 1017.4
20260905130558 68 0 0.0 0.0 0.00 0.00 0.00 47 1017.4
20260905130044 68 0 0.0 0.0 0.00 0.00 0.00 48 1017.4
20260905125530 68 0 0.0 0.0 0.00 0.00 0.00 47 1017.4
20260905124502 68 0 0.0 0.0 0.00 0.00 0.00 47 1017.5
20260905123948 68 0 0.0 0.0 0.00 0.00 0.00 46 1017.4
20260905123434 69 0 0.0 0.0 0.00 0.00 0.00 45 1017.6
20260905122919 68 0 0.0 0.0 0.00 0.00 0.00 45 1017.5
20260905121851 68 0 0.0 0.0 0.00 0.00 0.00 50 1017.4
20260905120309 66 0 0.0 0.0 0.00 0.00 0.00 50 1017.4
20260905115755 67 0 0.0 0.0 0.00 0.00 0.00 49 1017.4
20260905115242 67 0 0.0 0.0 0.00 0.00 0.00 50 1017.5
20260905114727 66 0 0.0 0.0 0.00 0.00 0.00 55 1017.4
20260905114213 66 0 0.0 0.0 0.00 0.00 0.00 55 1017.4
20260905113659 66 0 0.0 0.0 0.00 0.00 0.00 53 1017.6
20260905112632 65 0 0.0 0.0 0.00 0.00 0.00 53 1017.9
20260905111603 65 0 0.0 0.0 0.00 0.00 0.00 55 1017.5
20260905111049 65 0 0.0 0.0 0.00 0.00 0.00 54 1017.7
20260905110535 65 0 0.0 0.0 0.00 0.00 0.00 57 1017.6
20260905110021 65 0 0.0 0.0 0.00 0.00 0.00 58 1017.5
20260905105507 65 0 0.0 0.0 0.00 0.00 0.00 59 1017.6
20260905104954 64 0 0.0 0.0 0.00 0.00 0.00 63 1017.4
20260905103927 64 0 0.0 0.0 0.00 0.00 0.00 63 1017.5
20260905101830 64 0 0.0 0.0 0.00 0.00 0.00 70 1017.6
20260905100249 63 0 0.0 0.0 0.00 0.00 0.00 75 1017.4
20260905095735 63 0 0.0 0.0 0.00 0.00 0.00 74 1017.4
20260905095221 63 0 0.0 0.0 0.00 0.00 0.00 76 1017.5
20260905093640 62 0 0.0 0.0 0.00 0.00 0.00 77 1017.5
20260905093126 62 0 0.0 0.0 0.00 0.00 0.00 82 1017.6
20260905092612 62 0 0.0 0.0 0.00 0.00 0.00 83 1017.6
20260905092058 62 0 0.0 0.0 0.00 0.00 0.00 86 1017.5
20260905091545 62 0 0.0 0.0 0.00 0.00 0.00 86 1017.5
20260905090518 61 0 0.0 0.0 0.00 0.00 0.00 88 1017.4
20260905090004 60 0 0.0 0.0 0.00 0.00 0.00 87 1017.6
20260905085450 60 0 0.0 0.0 0.00 0.00 0.00 90 1017.4
20260905084936 60 0 0.0 0.0 0.00 0.00 0.00 96 1017.6
20260905083909 60 0 0.0 0.0 0.00 0.00 0.00 10 1017.4
20260905083355 59 0 0.0 0.0 0.00 0.00 0.00 10 1017.4
20260905082842 59 0 0.0 0.0 0.00 0.00 0.00 10 1017.2
20260905081815 58 0 0.0 0.0 0.00 0.00 0.00 10 1017.1
20260905081301 58 0 0.0 0.0 0.00 0.00 0.00 10 1017.2
20260905075207 57 0 0.0 0.0 0.00 0.00 0.00 10 1017.0
20260905074653 56 0 0.0 0.0 0.00 0.00 0.00 10 1017.0
20260905074140 56 0 0.0 0.0 0.00 0.00 0.00 10 1016.8
20260905073114 55 0 0.0 0.0 0.00 0.00 0.00 10 1016.6
20260905072600 55 0 0.0 0.0 0.00 0.00 0.00 10 1016.4
20260905071533 56 0 0.0 0.0 0.00 0.00 0.00 10 1016.3
20260905071019 55 0 0.0 0.0 0.00 0.00 0.00 10 1016.3
20260905065440 55 0 0.0 0.0 0.00 0.00 0.00 10 1016.6
20260905064927 55 0 0.0 0.0 0.00 0.00 0.00 10 1016.5
20260905063859 54 0 0.0 0.0 0.00 0.00 0.00 10 1016.5
20260905062833 54 0 0.0 0.0 0.00 0.00 0.00 10 1016.5
20260905062319 53 0 0.0 0.0 0.00 0.00 0.00 10 1016.7
20260905061806 53 0 0.0 0.0 0.00 0.00 0.00 10 1016.7
20260905061253 53 0 0.0 0.0 0.00 0.00 0.00 10 1016.5
20260905060739 53 0 0.0 0.0 0.00 0.00 0.00 10 1016.5
20260905060225 53 0 0.0 0.0 0.00 0.00 0.00 10 1015.8
20260905055712 53 0 0.0 0.0 0.00 0.00 0.00 10 1016.0
20260905055159 53 0 0.0 0.0 0.00 0.00 0.00 10 1016.1
20260905054133 53 0 0.0 0.0 0.00 0.00 0.00 10 1015.6
20260905053619 53 0 0.0 0.0 0.00 0.00 0.00 10 1015.4
20260905053105 53 0 0.0 0.0 0.00 0.00 0.00 10 1015.8
20260905052553 53 0 0.0 0.0 0.00 0.00 0.00 10 1016.0
20260905052039 53 0 0.0 0.0 0.00 0.00 0.00 10 1015.9
20260905051013 53 0 0.0 0.0 0.00 0.00 0.00 10 1015.9
20260905050459 53 0 0.0 0.0 0.00 0.00 0.00 10 1016.0
20260905045945 54 0 0.0 0.0 0.00 0.00 0.00 10 1015.7
20260905045433 54 0 0.0 0.0 0.00 0.00 0.00 10 1015.9
20260905044405 55 0 0.0 0.0 0.00 0.00 0.00 10 1016.0
20260905043853 56 0 0.0 0.0 0.00 0.00 0.00 10 1015.9
20260905043338 56 0 0.0 0.0 0.00 0.00 0.00 10 1015.5
20260905041244 56 0 0.0 0.0 0.00 0.00 0.00 10 1015.2
20260905035704 56 0 0.0 0.0 0.00 0.00 0.00 10 1014.8
20260905035151 56 0 0.0 0.0 0.00 0.00 0.00 10 1014.5
20260905033610 57 0 0.0 0.0 0.00 0.00 0.00 10 1014.6
20260905033057 57 0 0.0 0.0 0.00 0.00 0.00 10 1014.6
20260905032543 57 0 0.0 0.0 0.00 0.00 0.00 10 1014.5
20260905032030 57 0 0.0 0.0 0.00 0.00 0.00 10 1014.3
20260905031516 57 0 0.0 0.0 0.00 0.00 0.00 10 1014.3
20260905031003 57 0 0.0 0.0 0.00 0.00 0.00 10 1014.1
20260905030449 57 0 0.0 0.0 0.00 0.00 0.00 10 1014.2
20260905025422 58 0 0.0 0.0 0.00 0.00 0.00 10 1014.5
20260905024908 58 0 0.0 0.0 0.00 0.00 0.00 10 1014.5
20260905024355 59 0 0.0 0.0 0.00 0.00 0.00 10 1014.7
20260905023328 59 0 0.0 0.0 0.00 0.00 0.00 10 1014.1
20260905022814 59 0 0.0 0.0 0.00 0.00 0.00 10 1013.9
20260905020719 60 0 0.0 0.0 0.00 0.00 0.00 97 1013.3
20260905015653 61 0 0.0 0.0 0.00 0.00 0.00 89 1013.7
20260905015138 61 0 0.0 0.0 0.00 0.00 0.00 91 1013.4
20260905014625 61 0 0.0 0.0 0.00 0.00 0.00 89 1013.0
20260905014111 61 0 0.0 0.0 0.00 0.00 0.00 87 1013.1
20260905013043 61 0 0.0 0.0 0.00 0.00 0.00 85 1013.2
20260905012016 62 0 0.0 0.0 0.00 0.00 0.00 85 1013.2
20260905011503 62 0 0.0 0.0 0.00 0.00 0.00 84 1013.2
20260905010435 62 0 0.0 0.0 0.00 0.00 0.00 83 1013.0
20260905005921 62 0 0.0 0.0 0.00 0.00 0.00 80 1013.1
20260905005407 62 0 0.0 0.0 0.00 0.00 0.00 80 1013.3
20260905004853 63 0 0.0 0.0 0.00 0.00 0.00 79 1013.0
20260905004339 63 0 0.0 0.0 0.00 0.00 0.00 78 1013.1
20260905003826 63 0 0.0 0.0 0.00 0.00 0.00 78 1012.9
20260905002759 63 0 0.0 0.0 0.00 0.00 0.00 80 1012.6
20260905002244 63 0 0.0 0.0 0.00 0.00 0.00 80 1012.5
20260905001216 64 0 0.0 0.0 0.00 0.00 0.00 79 1012.1
20260905000702 64 0 0.0 0.0 0.00 0.00 0.00 77 1012.1
20260904235635 66 0 0.0 0.0 0.00 0.00 0.00 74 1011.7
20260904234053 68 0 0.0 0.0 0.00 0.00 0.00 68 1010.7
20260904233538 68 0 0.0 0.0 0.00 0.00 0.00 67 1010.4
20260904233024 68 0 0.0 0.0 0.00 0.00 0.00 66 1010.3
20260904231956 68 0 0.0 0.0 0.00 0.00 0.00 65 1010.2
20260904231442 68 0 0.0 0.0 0.00 0.00 0.00 65 1010.2
20260904230928 68 0 0.0 0.0 0.00 0.00 0.00 64 1010.2
20260904230413 68 0 0.0 0.0 0.00 0.00 0.00 64 1010.3
20260904225345 68 0 0.0 0.0 0.00 0.00 0.00 64 1010.2
20260904224831 68 0 0.0 0.0 0.00 0.00 0.00 63 1010.2
20260904223249 69 0 0.0 0.0 0.00 0.00 0.00 63 1010.1
20260904222734 69 0 0.0 0.0 0.00 0.00 0.00 63 1010.1
20260904222221 69 0 0.0 0.0 0.00 0.00 0.00 63 1010.2
20260904220638 69 0 0.0 0.0 0.00 0.00 0.00 62 1010.2
20260904215610 69 0 0.0 0.0 0.00 0.00 0.00 61 1010.1
20260904214541 69 0 0.0 0.0 0.00 0.00 0.00 60 1010.1
20260904214027 69 0 0.0 0.0 0.00 0.00 0.00 60 1010.0
20260904213513 69 0 0.0 0.0 0.00 0.00 0.00 60 1010.1
20260904212445 69 0 0.0 0.0 0.00 0.00 0.00 59 1010.1
20260904211416 69 0 0.0 0.0 0.00 0.00 0.00 59 1010.0
20260904210902 70 0 0.0 0.0 0.00 0.00 0.00 59 1010.1
20260904205834 70 0 0.0 0.0 0.00 0.00 0.00 58 1010.0
20260904205319 70 0 0.0 0.0 0.00 0.00 0.00 59 1010.1
20260904204805 70 0 0.0 0.0 0.00 0.00 0.00 58 1010.1
20260904203737 70 0 0.0 0.0 0.00 0.00 0.00 58 1010.1
20260904202708 70 0 0.0 0.0 0.00 0.00 0.00 57 1010.1
20260904201640 71 0 0.0 0.0 0.00 0.00 0.00 58 1010.2
20260904200057 71 0 0.0 0.0 0.00 0.00 0.00 58 1010.3
20260904194514 71 0 0.0 0.0 0.00 0.00 0.00 57 1010.3
20260904194000 71 0 0.0 0.0 0.00 0.00 0.00 57 1010.3
20260904193445 71 0 0.0 0.0 0.00 0.00 0.00 56 1010.2
20260904192931 72 0 0.0 0.0 0.00 0.00 0.00 56 1010.3
20260904191348 73 0 0.0 0.0 0.00 0.00 0.00 53 1010.7